QPF
0.00 0.00 0.00 0.00 0.00 0.00 0.00 0.00 0.00 0.00 0.00 0.00 0.00 0.01 0.00 0.00 0.00 0.00 0.01 0.00 0.00 0.00
0.00 0.00 0.00 0.00 0.00 0.00 0.00 0.00 0.00 0.00 0.00 0.00 0.00 0.00 0.01 0.00 0.00 0.00 0.01 0.01 0.01 0.00
0.00 0.00 0.00 0.00 0.00 0.00 0.00 0.00 0.00 0.00 0.00 0.00 0.00 0.00 0.00 0.00 0.00 0.00 0.00 0.00 0.01 0.00
0.00 0.00 0.00 0.00 0.00 0.00 0.00 0.00 0.00 0.00 0.00 0.00 0.00 0.00 0.00 0.00 0.00 0.00 0.02 0.02 0.01 0.01
0.00 0.00 0.00 0.00 0.00 0.00 0.00 0.00 0.00 0.00 0.00 0.00 0.00 0.00 0.00 0.00 0.00 0.00 0.00 0.01 0.05 0.01
0.00 0.00 0.00 0.00 0.00 0.00 0.00 0.00 0.00 0.00 0.00 0.00 0.00 0.00 0.00 0.00 0.00 0.00 0.00 0.00 0.01 0.01
0.00 0.00 0.00 0.00 0.00 0.00 0.00 0.00 0.00 0.00 0.00 0.00 0.00 0.00 0.00 0.00 0.00 0.00 0.00 0.00 0.00 0.00
0.00 0.06 0.13 0.01 0.01 0.00 0.00 0.00 0.00 0.00 0.00 0.00 0.00 0.00 0.00 0.00 0.00 0.00 0.00 0.00 0.00 0.00
0.00 0.00 0.02 0.03 0.01 0.00 0.00 0.00 0.00 0.00 0.00 0.01 0.00 0.01 0.01 0.00 0.00 0.00 0.00 0.00 0.00 0.00
0.00 0.01 0.02 0.01 0.03 0.02 0.03 0.00 0.00 0.00 0.02 0.01 0.01 0.00 0.01 0.01 0.00 0.00 0.00 0.00 0.00 0.00
0.00 0.06 0.02 0.00 0.01 0.00 0.02 0.00 0.00 0.00 0.00 0.00 0.00 0.00 0.00 0.00 0.00 0.00 0.00 0.00 0.00 0.00
0.01 0.01 0.01 0.00 0.00 0.00 0.01 0.00 0.00 0.00 0.00 0.00 0.00 0.00 0.00 0.00 0.00 0.00 0.00 0.00 0.00 0.00
0.02 0.00 0.00 0.00 0.00 0.00 0.00 0.00 0.00 0.00 0.00 0.00 0.00 0.00 0.00 0.00 0.00 0.00 0.00 0.00 0.00 0.00
0.01 0.03 0.02 0.00 0.00 0.00 0.00 0.00 0.00 0.00 0.00 0.00 0.00 0.00 0.00 0.00 0.00 0.00 0.00 0.00 0.00 0.00
MSLP
1015.71 1016.15 1016.37 1016.58 1016.62 1016.80 1016.83 1016.73 1016.74 1017.10 1017.37 1017.54 1017.70 1017.73 1017.85 1018.01 1018.15 1018.33 1018.50 1018.54 1018.45 1018.20
1014.93 1015.49 1015.53 1015.92 1016.22 1016.33 1016.50 1016.38 1016.49 1016.67 1016.98 1017.10 1017.22 1017.26 1017.49 1017.66 1017.75 1017.83 1017.76 1017.75 1017.94 1017.92
1014.00 1014.70 1015.12 1015.48 1015.66 1015.85 1016.00 1016.11 1016.14 1016.35 1016.56 1016.75 1016.90 1016.95 1017.25 1017.27 1017.34 1017.38 1017.26 1017.09 1017.18 1017.39
1013.22 1013.98 1014.65 1014.95 1015.18 1015.37 1015.66 1015.86 1015.96 1016.04 1016.18 1016.31 1016.49 1016.66 1016.86 1016.90 1016.89 1016.93 1016.76 1016.65 1016.61 1016.59
1012.63 1013.30 1013.79 1014.25 1014.46 1014.73 1015.01 1015.32 1015.54 1015.75 1015.79 1015.83 1015.99 1016.22 1016.34 1016.26 1016.17 1016.20 1016.13 1016.11 1016.14 1016.04
1011.73 1012.30 1012.98 1013.50 1013.89 1014.27 1014.63 1014.75 1014.96 1015.17 1015.38 1015.43 1015.47 1015.63 1015.74 1015.80 1015.80 1015.70 1015.62 1015.52 1015.44 1015.37
1010.91 1011.64 1012.23 1012.94 1013.22 1013.52 1014.04 1014.27 1014.36 1014.58 1014.73 1014.83 1014.93 1015.15 1015.34 1015.34 1015.28 1015.26 1015.07 1015.02 1014.98 1014.80
1010.57 1011.20 1011.51 1012.12 1012.52 1012.92 1013.17 1013.54 1013.65 1013.91 1014.24 1014.49 1014.53 1014.57 1014.64 1014.87 1014.83 1014.73 1014.61 1014.53 1014.46 1014.29
1010.16 1010.65 1011.10 1011.04 1011.71 1012.50 1012.73 1013.21 1013.42 1013.62 1013.90 1014.18 1014.30 1014.50 1014.80 1014.87 1014.47 1014.28 1014.12 1013.80 1013.62 1013.58
1010.26 1010.88 1011.08 1011.19 1011.70 1012.25 1012.87 1013.13 1013.20 1013.50 1013.96 1014.17 1014.41 1014.76 1014.91 1014.96 1014.61 1014.12 1013.60 1013.33 1013.09 1012.86
1010.42 1011.04 1011.62 1011.83 1012.32 1012.78 1013.31 1013.33 1013.51 1013.73 1014.17 1014.48 1014.56 1015.02 1015.15 1015.00 1014.61 1014.13 1013.54 1012.97 1012.44 1012.09
1010.37 1011.43 1012.49 1012.76 1013.01 1013.28 1013.49 1013.59 1013.78 1014.00 1014.24 1014.22 1014.41 1014.82 1014.89 1014.63 1013.98 1013.27 1012.70 1012.29 1011.89 1011.54
1010.49 1011.39 1012.38 1012.62 1013.46 1014.02 1013.35 1013.54 1013.74 1014.12 1014.28 1014.18 1013.66 1013.88 1013.94 1013.94 1013.37 1012.86 1012.47 1011.91 1011.22 1010.85
1010.54 1012.10 1012.60 1013.13 1013.69 1013.81 1013.84 1013.97 1014.13 1014.04 1013.71 1013.59 1013.61 1013.43 1013.46 1013.55 1013.29 1012.68 1011.88 1011.30 1010.83 1010.18
Thickness
5756 5754 5754 5754 5756 5756 5757 5760 5762 5761 5760 5760 5760 5762 5764 5766 5766 5767 5766 5765 5767 5769
5759 5756 5759 5758 5758 5760 5760 5764 5763 5761 5761 5761 5761 5763 5764 5765 5766 5769 5771 5772 5770 5769
5765 5761 5760 5761 5760 5761 5762 5763 5764 5763 5762 5762 5762 5762 5763 5765 5767 5768 5770 5774 5773 5772
5767 5763 5760 5760 5762 5762 5762 5761 5762 5763 5763 5763 5762 5761 5761 5762 5764 5765 5768 5771 5772 5773
5769 5765 5762 5761 5764 5765 5764 5763 5762 5762 5762 5762 5760 5758 5758 5758 5761 5761 5762 5765 5767 5770
5773 5770 5763 5759 5760 5761 5761 5763 5762 5760 5758 5759 5760 5758 5757 5756 5757 5759 5760 5762 5764 5767
5774 5769 5768 5764 5765 5765 5761 5760 5760 5760 5759 5759 5758 5755 5751 5751 5753 5754 5757 5759 5761 5763
5773 5772 5774 5767 5768 5767 5766 5762 5762 5760 5757 5755 5755 5754 5751 5748 5748 5750 5752 5755 5756 5759
5771 5773 5772 5774 5770 5766 5766 5759 5759 5758 5755 5751 5750 5746 5742 5740 5743 5744 5747 5749 5752 5754
5767 5765 5766 5767 5765 5762 5756 5755 5755 5754 5750 5745 5742 5736 5734 5733 5735 5739 5744 5745 5746 5747
5761 5756 5753 5755 5753 5750 5748 5749 5748 5746 5741 5736 5734 5727 5725 5726 5728 5731 5736 5739 5743 5745
5756 5747 5741 5739 5740 5741 5741 5742 5741 5737 5733 5731 5727 5722 5719 5719 5725 5730 5734 5736 5739 5741
5747 5743 5738 5738 5733 5731 5739 5737 5734 5729 5727 5726 5728 5723 5720 5718 5722 5723 5726 5732 5736 5737
5739 5730 5729 5728 5726 5726 5726 5726 5723 5723 5724 5724 5722 5721 5719 5716 5717 5719 5725 5728 5730 5735